World > North America > United States > Texas

Spanish Camp, Texas Regional Weather

Lat: 29.31N, Lon: 96.08W
Wx Zone: TXZ226Web Search

Pass this page to a friend. Tell them to point their camera at the QR Code near the bottom of this page.

Feedback


°F Click to change Spanish Camp hourly weather to Imperial units.Click to change Spanish Camp hourly weather to Metric units. °C
Spanish Camp Weather Map
UTC Time: 4/14/2021, 11:14
Your Time:

Spanish Camp, TX Regional Weather

Expires:202104141200;;535402
ASUS44 KSJT 141110
RWRSJT
WEST CENTRAL TEXAS REGIONAL WEATHER ROUNDUP
NATIONAL WEATHER SERVICE SAN ANGELO TX
600 AM CDT WED APR 14 2021

NOTE: "FAIR" INDICATES FEW OR NO CLOUDS BELOW 12,000 FEET WITH NO
SIGNIFICANT WEATHER AND/OR OBSTRUCTIONS TO VISIBILITY.


TXZ163-177-195>197-199-213-226-237-141200-
SOUTHEAST TEXAS
  
CITY           SKY/WX    TMP DP  RH WIND       PRES   REMARKS
COLLEGE STN    CLOUDY    69  66  90 CALM      29.94R                  
CALDWELL       CLOUDY    69  66  92 S5        29.95S                  
CROCKETT       NOT AVBL                                               
BRENHAM        CLOUDY    70  68  93 CALM      29.95R                  
HUNTSVILLE     CLOUDY    71  65  81 S5        29.94F                  
CONROE         CLOUDY    70  66  87 S6        29.94R                  
HOUSTON BUSH   CLOUDY    70  68  93 SE9       29.92S FOG              
HOUSTON HOBBY  TSTM      73  70  90 S6        29.92S FOG              
PERLAND        LGT RAIN  73  71  93 VRB6      29.94R FOG              
WHARTON        CLOUDY    71  69  93 SE7       29.93S FOG              
$$


SKY/WX - Weather  TMP - Temperature  DP - Dew Point  RH - Relative Humidity
WIND - Wind Direction/Speed PRES - Barometric Pressure VSB - Visibility
WCI - Wind Chill Index E13G22 Wind - East Wind 13 mph/Gusts of 22 mph